map of SVQ home
SVQ - Airport
Location
City:  Sevilla, Andalusia, Spain
Near (Alt.):Seville
Name:San Pablo
ICAO:LEZL
IATA:SVQ

Details
Type:Airport (Aerodrome, Airfield)
Use:Public/Civil
Latitude:3725'05"N (37.418000)
Longitude:553'35"W (-5.893105)
Datum:WGS 1984
Elevation:111 ft (34 m)
Variation:1.17W (WMM2015 magnetic declination)
0.12 annual change
Runways:1
Longest:11024 × 148 ft (3360 × 45 m), paved

Time
Time Zone:UTC+1 (DST+2)
Local Time:

Weather
METAR:LEZL 240830Z VRB02KT 9999 FEW042 10/09 Q1013 NOSIG
TAF:LEZL 240800Z 2409/2509 23005KT CAVOK TX20/2416Z TN07/2508Z

Related Locations
Nearby:
Farthest:NZLD: 12407 mi / 19967 km
Limestone Downs, WKO, NZ

Find:

   beyond  
but within

Other Information
Maps:
NOTAMs:
Links:
Sources:

  
  • flag of Spain
  • flag of Andalusia
  

Airport Diagram

Airport diagram for SVQ

Larger airport diagram (OBSOLETE) from NGA

Sectional Chart

Flight Planning
at skyvector.com

Satellite Image

Google Maps Satellite view

 

Copyright © 2004-2019 Karl L. Swartz. All rights reserved.
The Great Circle Mapper name and logo are trademarks of the Great Circle Mapper.
All other trademarks mentioned herein belong to their respective owners.
Please see credits for attibutions and further copyright information.

  Follow gcmap on Facebook Follow gcmap on Twitter Follow gcmap on Google+ GCmap on LinkedIn

hCard Microformat

Geo Microformat